Tri-Cities, TN

5:01 PM EDT on March 26, 2017 (GMT -0400)
Tri-Cities Regional Tennessee / Virginia

Weather History for KTRI - February, 2013

Change the Weather History Date:

Friday, February 8, 2013

  Actual Average Record
Temperature  
Mean Temperature 44 °F 37 °F  
Max Temperature 53 °F 48 °F 70 °F (2001)
Min Temperature 35 °F 27 °F 6 °F (1984)
Degree Days  
Heating Degree Days 21 28  
Month to date heating degree days 238 226  
Since 1 July heating degree days 2676 2880  
Cooling Degree Days 0 0  
Month to date cooling degree days 0 0  
Year to date cooling degree days 0 0  
Moisture  
Dew Point 35 °F    
Average Humidity 67    
Maximum Humidity 93    
Minimum Humidity 41    
Precipitation  
Precipitation 0.07 in 0.13 in 0.62 in (2017)
Month to date precipitation 0.39 1.00  
Year to date precipitation 10.38 4.37  
Snow  
Snow 0.00 in 0.20 in - ()
Month to date snowfall 3.1 1.1  
Since 1 July snowfall 7.2 8.5  
Snow Depth 0.00 in    
Sea Level Pressure  
Sea Level Pressure 29.99 in    
Wind  
Wind Speed 5 mph (NW)    
Max Wind Speed 21 mph    
Max Gust Speed 28 mph    
Visibility 9 miles    
Events Rain    
T = Trace of Precipitation, MM = Missing Value Source: NWS Daily Summary

Daily Weather History Graph

Daily Weather History Graph

Search for Another Location

Airport or City:

Trip Planner

Search our weather history database for the weather conditions in past years. The results will help you decide how hot, cold, wet, or windy it might be!

Date:

Astronomy

Feb. 08, 2013 Rise Set
Actual Time 7:24 AM EST 6:03 PM EST
Civil Twilight 6:57 AM EST 6:30 PM EST
Nautical Twilight 6:27 AM EST 7:00 PM EST
Astronomical Twilight 5:57 AM EST 7:30 PM EST
Moon 5:51 AM EST (2/8) 4:36 PM EST (2/8)
Length of Visible Light 11h 32m
Length of Day
10h 38m
Waning Crescent, 3% of the Moon is Illuminated
Feb 8
Waning Crescent
Feb 10
New
Feb 17
First Quarter
Feb 25
Full
Mar 4
Last Quarter

Hourly Weather History & Observations

Time (EST) Temp. Windchill Dew Point Humidity Pressure Visibility Wind Dir Wind Speed Gust Speed Precip Events Conditions
12:53 AM 44.1 °F - 37.0 °F 76% 29.91 in 10.0 mi Calm Calm - N/A   Overcast
1:53 AM 42.1 °F - 36.0 °F 79% 29.89 in 10.0 mi Calm Calm - N/A   Overcast
2:53 AM 43.0 °F 41.3 °F 37.0 °F 80% 29.89 in 10.0 mi North 3.5 mph - N/A   Overcast
3:53 AM 43.0 °F - 37.0 °F 80% 29.88 in 10.0 mi Calm Calm - 0.00 in Rain Light Rain
4:53 AM 42.1 °F - 37.9 °F 85% 29.89 in 10.0 mi Calm Calm - 0.03 in   Overcast
5:53 AM 41.0 °F - 37.9 °F 89% 29.89 in 10.0 mi Calm Calm - N/A   Overcast
6:23 AM 41.0 °F 39.0 °F 37.9 °F 89% 29.90 in 10.0 mi NE 3.5 mph - N/A   Overcast
6:40 AM 41.0 °F 39.0 °F 37.9 °F 89% 29.91 in 10.0 mi NE 3.5 mph - N/A   Overcast
6:53 AM 41.0 °F - 37.9 °F 89% 29.89 in 10.0 mi Calm Calm - N/A   Overcast
7:53 AM 42.1 °F - 39.0 °F 89% 29.90 in 10.0 mi Calm Calm - N/A   Overcast
8:53 AM 42.1 °F - 39.0 °F 89% 29.92 in 7.0 mi Calm Calm - 0.00 in Rain Light Rain
9:34 AM 41.0 °F - 39.0 °F 93% 29.94 in 3.0 mi Calm Calm - 0.01 in Rain Light Rain
9:53 AM 41.0 °F - 39.0 °F 93% 29.93 in 3.0 mi Calm Calm - 0.01 in Rain Light Rain
10:34 AM 42.1 °F - 39.9 °F 92% 29.96 in 3.0 mi Calm Calm - 0.03 in Rain Light Rain
10:53 AM 42.1 °F - 39.9 °F 92% 29.95 in 3.0 mi Calm Calm - 0.03 in   Overcast
11:53 AM 44.1 °F 39.5 °F 42.1 °F 93% 29.95 in 3.0 mi WSW 8.1 mph - N/A   Overcast
12:53 PM 46.9 °F - 44.1 °F 90% 29.94 in 10.0 mi West 5.8 mph - N/A   Mostly Cloudy
1:20 PM 50.0 °F - 44.1 °F 80% 29.96 in 10.0 mi WSW 8.1 mph - N/A   Mostly Cloudy
1:53 PM 50.0 °F - 42.1 °F 74% 29.94 in 10.0 mi Calm Calm - N/A   Mostly Cloudy
2:53 PM 51.1 °F - 33.1 °F 50% 29.94 in 10.0 mi NNW 15.0 mph 23.0 mph N/A   Scattered Clouds
3:53 PM 51.1 °F - 28.9 °F 43% 29.97 in 10.0 mi WNW 15.0 mph 24.2 mph N/A   Scattered Clouds
4:53 PM 46.9 °F - 30.0 °F 52% 30.01 in 10.0 mi NNW 12.7 mph 23.0 mph N/A   Partly Cloudy
5:53 PM 41.0 °F 34.3 °F 28.0 °F 60% 30.07 in 10.0 mi NNW 11.5 mph 21.9 mph N/A   Scattered Clouds
6:53 PM 39.9 °F 33.9 °F 28.9 °F 65% 30.12 in 10.0 mi NW 9.2 mph - N/A   Mostly Cloudy
7:53 PM 37.9 °F 30.5 °F 26.1 °F 62% 30.16 in 10.0 mi NNW 11.5 mph - N/A   Mostly Cloudy
8:53 PM 37.0 °F 30.4 °F 26.1 °F 65% 30.19 in 10.0 mi NNW 9.2 mph - N/A   Mostly Cloudy
9:53 PM 37.0 °F 31.0 °F 27.0 °F 67% 30.22 in 10.0 mi NNW 8.1 mph - N/A   Mostly Cloudy
10:53 PM 36.0 °F 29.0 °F 26.1 °F 67% 30.22 in 10.0 mi NNW 9.2 mph - N/A   Overcast
11:53 PM 36.0 °F 29.0 °F 25.0 °F 64% 30.23 in 10.0 mi NW 9.2 mph - N/A   Overcast